#timestamp,LO_Frequency,Hit,StdDev 
1643554815.7,286047000.3,N
1643554835.5,286046998.5,N
1643554855.4,286047000.1,N
1643554875.2,286047002.0,N
1643554895.1,286047002.6,N
1643554896.0,286047002.6,N
1643554915.8,286047004.2,N
1643554935.6,286047001.4,N
1643554955.5,286047002.4,N
1643554975.3,286047004.4,N
1643554995.1,286047001.9,N
1643555015.9,286047001.7,N
1643555035.7,286047002.8,N
1643555055.6,286047000.2,N
1643555075.4,286047002.0,N
1643555095.2,286047002.0,N
1643555115.1,286047001.1,N
1643555116.0,286047001.1,N
1643555135.8,286047000.1,N
1643555155.7,286047000.4,N
1643555175.5,286047000.7,N
1643555195.3,286046999.5,N
1643555215.2,286047000.8,N
1643555235.0,286047002.6,N
1643555235.9,286047002.6,N
1643555255.7,286047002.2,N
1643555275.6,286047001.5,N
1643555295.4,286047001.9,N
1643555315.3,286047002.8,N
1643555335.1,286047002.1,N
1643555336.0,286047002.1,N
1643555355.8,286047002.0,N
1643555375.7,286047003.9,Y
1643555395.5,286047002.7,P
1643555415.4,286047000.4,N
1643555435.2,286046998.5,N
1643555455.0,286046998.7,N
1643555455.9,286046998.7,N
1643555475.8,286046998.7,N
1643555495.6,286046996.5,N
1643555515.4,286046998.7,N
1643555535.3,286046998.7,N
1643555555.1,286046998.6,N
1643555575.9,286047001.1,N
1643555595.7,286046998.5,N
1643555615.5,286046998.4,N
1643555635.4,286047000.8,N
1643555655.2,286046999.9,N
1643555675.0,286046999.9,N
1643555675.9,286046999.9,N
1643555695.8,286047002.5,N
1643555715.6,286047000.7,N
1643555735.5,286047000.2,N
1643555755.3,286047001.0,N
1643555775.1,286046999.9,N
1643555795.9,286046999.8,N
1643555815.7,286047000.5,N
1643555835.5,286047002.8,N
1643555855.4,286046999.7,N
1643555875.2,286047000.4,N
1643555895.1,286047000.1,N
1643555896.0,286047000.1,N
1643555915.8,286047000.0,N
1643555935.6,286047000.0,N
1643555955.5,286047000.8,N
1643555975.3,286047001.2,N
1643555995.1,286047000.8,N
1643556015.9,286046998.5,N
1643556035.7,286046999.1,N
1643556055.6,286046997.0,N
1643556075.4,286046996.6,N
1643556095.2,286046997.8,N
1643556115.1,286046999.1,N
1643556116.0,286046999.1,N
1643556135.8,286046999.4,N
1643556155.6,286046999.4,N
1643556175.5,286046998.6,N
1643556195.3,286046998.2,N
1643556215.2,286047000.8,N
1643556235.9,286046999.5,N
1643556255.7,286046996.9,N
1643556275.6,286046996.5,N
1643556295.4,286046998.1,N
1643556315.2,286047000.8,N
1643556335.1,286046999.9,N
1643556336.0,286046999.9,N
1643556355.8,286046999.8,N
1643556375.7,286047000.0,N
1643556395.5,286047002.4,N
1643556415.3,286047000.9,N
1643556435.2,286046998.2,N
1643556455.0,286046998.2,N
1643556455.9,286046998.2,N
1643556475.8,286046998.7,N
1643556495.6,286046999.1,N
1643556515.4,286046997.1,N
1643556535.3,286046999.2,N
1643556555.1,286046998.6,N
1643556575.8,286046998.1,N
1643556595.7,286046998.2,N
1643556615.5,286047002.3,N
1643556635.4,286047002.6,N
1643556655.2,286046999.8,N
1643556675.0,286047002.0,N
1643556675.9,286047002.0,N
1643556695.8,286047002.2,N
1643556715.6,286047002.4,N
1643556735.4,286047000.1,N
1643556755.3,286047000.1,N
1643556775.1,286047000.2,N
1643556795.9,286047002.1,N
1643556815.7,286047000.4,N
1643556835.5,286046998.9,N
1643556855.4,286047002.3,N
1643556875.2,286047002.2,N
1643556895.0,286046999.8,N
1643556895.9,286046999.8,N
1643556915.8,286047000.8,N
1643556935.6,286046998.2,N
1643556955.5,286046998.5,N
1643556975.3,286046998.7,N
1643556995.1,286046998.6,N
1643557015.9,286046998.3,N
1643557035.7,286047000.6,N
1643557055.5,286047001.2,N
1643557075.4,286047001.1,N
1643557095.2,286047001.1,N
1643557115.1,286046998.6,N
1643557116.0,286046998.6,N
1643557135.8,286047001.2,N
1643557155.6,286047002.3,N
1643557175.5,286047000.0,N
1643557195.3,286047000.9,N
1643557215.1,286046998.2,N
1643557235.9,286046996.5,N
1643557255.7,286046999.0,N
1643557275.6,286046998.1,N
1643557295.4,286046998.5,N
1643557315.2,286046998.9,N
1643557335.1,286046999.0,N
1643557336.0,286046999.0,N
1643557355.8,286046998.9,N
1643557375.7,286047001.1,N
1643557395.5,286046998.9,N
1643557415.3,286046998.1,N
1643557435.2,286046998.1,N
1643557455.0,286046998.1,N
1643557485.9,286046999.3,E
1643557495.9,286046999.0,N
1643557515.7,286047000.7,P
1643557535.5,286046998.7,N
1643557555.4,286047000.7,N
1643557575.2,286047000.8,N
1643557595.0,286047000.3,N
1643557596.0,286047000.3,N
1643557615.8,286047000.0,N
1643557635.6,286046998.6,N
1643557655.5,286047002.3,N
1643557675.3,286047000.0,N
1643557695.1,286046999.8,N
1643557715.9,286047002.1,N
1643557735.7,286047000.2,N
1643557755.5,286047002.3,N
1643557775.4,286047000.1,N
1643557795.2,286046998.3,N
1643557815.1,286046998.2,N
1643557816.0,286046998.2,N
1643557835.8,286047000.7,N
1643557855.6,286047000.6,N
1643557875.5,286046998.5,N
1643557895.3,286046998.2,N
1643557915.2,286046998.5,N
1643557935.9,286047001.9,N
1643557955.7,286047000.5,N
1643557975.6,286047001.2,N
1643557995.4,286047000.8,N
1643558015.2,286046998.1,N
1643558035.1,286046998.6,N
1643558036.0,286046998.6,N
1643558055.8,286046996.7,N
1643558075.7,286046998.4,N
1643558095.5,286046998.9,N
1643558115.3,286046998.8,N
1643558135.2,286046998.5,N
1643558155.0,286046999.8,N
1643558155.9,286046999.8,N
1643558175.8,286047002.7,N
1643558195.6,286047003.8,N
1643558215.4,286047003.9,N
1643558235.3,286046999.7,N
1643558255.1,286047002.8,N
1643558275.9,286047000.1,N
1643558295.7,286047000.2,N
1643558315.5,286047002.1,N
1643558335.4,286047002.0,N
1643558355.2,286047002.3,N
1643558375.0,286047004.2,N
1643558375.9,286047004.2,N
1643558395.8,286047001.7,N
